Waarnemingen

Advertentie
Mijn weer
Vinga, Zweden (2516): temperatuur & dauwpunt: 18.07.2019 00:00:00 - 24.07.2019 00:00:00 (CEST)Vinga, Zweden (2516): windsnelheid & windstoten: 18.07.2019 00:00:00 - 24.07.2019 00:00:00 (CEST)Vinga, Zweden (2516): windrichting: 18.07.2019 00:00:00 - 24.07.2019 00:00:00 (CEST)Vinga, Zweden (2516): luchtdruk: 18.07.2019 00:00:00 - 24.07.2019 00:00:00 (CEST)Vinga, Zweden (2516): zicht: 18.07.2019 00:00:00 - 24.07.2019 00:00:00 (CEST)Vinga, Zweden (2516): neerslag: 18.07.2019 00:00:00 - 24.07.2019 00:00:00 (CEST)
Datum & Tijd tt [°C] td [°C] ff [km/u] ff [kn] fx [km/u] fx [kn] dd ppp [hPa] vv [km] rr [mm]
24.07.2019 00:00:00 18,5 16,4 5 3 13 7 W 1019,4 20 0,0
23.07.2019 23:00:00 18,7 17,2 9 5 11 6 ZZW 1019,1 - 0,0
23.07.2019 22:00:00 19,0 17,0 7 4 20 11 ZZW 1018,9 13 0,0
23.07.2019 21:00:00 19,2 16,2 13 7 21 11 WNW 1018,7 18 0,0
23.07.2019 20:00:00 18,7 16,1 5 3 11 6 N 1018,9 12 0,0
23.07.2019 19:00:00 19,3 16,3 5 3 12 7 NNW 1018,8 13 0,0
23.07.2019 18:00:00 19,2 16,1 8 4 19 10 N 1018,8 12 0,0
23.07.2019 17:00:00 19,8 16,4 13 7 18 10 NNW 1018,7 11 0,0
23.07.2019 16:00:00 19,1 16,1 15 8 18 10 NNW 1018,8 10 0,0
23.07.2019 15:00:00 19,4 16,6 11 6 17 9 NNW 1018,6 10 0,0
23.07.2019 14:00:00 18,4 16,2 11 6 17 9 NNW 1018,6 - 0,0
23.07.2019 13:00:00 19,1 16,5 13 7 21 11 NW 1018,3 12 0,0
23.07.2019 12:00:00 18,3 16,3 14 8 24 13 WNW 1018,1 13 0,0
23.07.2019 11:00:00 17,5 16,2 21 11 27 14 WNW 1018,0 10 0,0
23.07.2019 10:00:00 16,8 16,2 16 9 32 17 W 1017,5 8 0,0
23.07.2019 09:00:00 16,7 16,1 21 12 29 16 WNW 1017,3 5 0,0
23.07.2019 08:00:00 16,9 16,1 22 12 30 16 W 1016,6 6 0,0
23.07.2019 07:00:00 16,9 15,9 17 9 26 14 W 1016,1 8 0,0
23.07.2019 06:00:00 17,0 15,9 19 10 30 16 W 1015,9 6 0,0
23.07.2019 05:00:00 17,0 16,2 16 9 34 18 W 1016,0 6 0,0
23.07.2019 04:00:00 16,8 16,3 20 11 35 19 W 1015,8 3,9 0,0
23.07.2019 03:00:00 17,1 16,3 20 11 37 20 W 1015,8 9 0,0
23.07.2019 02:00:00 17,4 16,4 28 15 35 19 WZW 1015,4 13 0,0
23.07.2019 01:00:00 17,5 16,4 27 14 37 20 ZW 1015,6 14 0,0
23.07.2019 00:00:00 17,4 16,6 30 16 40 21 ZW 1015,4 9 0,0
22.07.2019 23:00:00 17,0 16,0 33 18 46 25 ZZW 1015,7 8 0,2
22.07.2019 22:00:00 16,5 15,7 40 22 49 27 ZZW 1015,4 2,6 0,2
22.07.2019 21:00:00 16,2 15,2 42 23 50 27 Z 1015,5 4,0 0,1
22.07.2019 20:00:00 16,1 15,0 43 23 50 27 ZZW 1015,8 4,4 0,0
22.07.2019 19:00:00 16,7 15,1 39 21 46 25 Z 1016,5 16 0,1
22.07.2019 18:00:00 16,5 14,7 36 19 42 23 Z 1016,7 12 0,3
22.07.2019 17:00:00 16,4 13,9 31 17 39 21 Z 1017,3 12 0,1
22.07.2019 16:00:00 16,4 13,3 26 14 33 18 ZZW 1017,7 14 0,1
22.07.2019 15:00:00 16,6 13,7 25 13 29 15 ZZW 1018,1 14 0,0
22.07.2019 14:00:00 17,3 13,2 18 10 24 13 ZW 1018,2 22 0,0
22.07.2019 13:00:00 17,6 12,5 17 9 27 15 ZW 1018,4 43 0,0
22.07.2019 12:00:00 17,4 12,5 19 10 34 18 W 1018,5 34 0,0
22.07.2019 11:00:00 17,0 12,5 24 13 41 22 W 1018,3 32 0,0
22.07.2019 10:00:00 16,9 13,0 32 17 41 22 WZW 1017,8 26 0,0
22.07.2019 09:00:00 16,3 13,2 28 15 39 21 WZW 1017,3 20 0,0
22.07.2019 08:00:00 16,1 12,8 29 16 39 21 WZW 1017,3 21 0,0
22.07.2019 07:00:00 15,7 13,0 26 14 38 21 W 1017,0 20 0,0
22.07.2019 06:00:00 15,4 13,2 26 14 44 24 W 1017,0 16 0,0
22.07.2019 05:00:00 15,6 12,9 29 16 45 24 W 1016,7 20 0,0
22.07.2019 04:00:00 15,6 12,7 32 17 46 25 W 1016,7 18 0,0
22.07.2019 03:00:00 15,7 12,4 32 17 48 26 W 1016,7 17 0,0
22.07.2019 02:00:00 15,8 12,4 31 17 47 25 W 1016,3 17 0,0
22.07.2019 01:00:00 16,0 12,7 34 18 51 27 W 1016,2 15 0,0
22.07.2019 00:00:00 15,9 13,0 39 21 53 28 W 1015,9 14 0,0
21.07.2019 23:00:00 16,0 12,7 35 19 49 26 W 1015,6 14 0,0
21.07.2019 22:00:00 16,1 12,8 30 16 44 24 W 1015,3 13 0,0
21.07.2019 21:00:00 16,3 13,0 32 17 46 25 WZW 1014,9 14 0,0
21.07.2019 20:00:00 16,6 12,7 27 15 41 22 W 1014,4 21 0,0
21.07.2019 19:00:00 17,3 14,9 27 15 45 24 W 1013,6 16 0,0
21.07.2019 18:00:00 18,3 15,2 25 14 36 20 W 1013,3 29 0,0
21.07.2019 17:00:00 18,8 16,6 17 9 24 13 W 1012,8 28 0,0
21.07.2019 16:00:00 19,1 16,9 19 10 30 16 WZW 1012,2 16 0,3
21.07.2019 15:00:00 18,8 16,4 25 14 34 18 ZZW 1011,8 12 0,0
21.07.2019 14:00:00 18,7 16,3 29 16 34 18 ZZW 1011,5 16 0,0
21.07.2019 13:00:00 18,9 16,3 30 16 35 19 ZZW 1011,1 18 0,0
21.07.2019 12:00:00 18,7 16,1 29 16 34 19 ZZW 1010,8 16 0,0
21.07.2019 11:00:00 18,4 16,0 22 12 32 17 ZZW 1010,3 15 0,0
21.07.2019 10:00:00 18,3 16,3 27 15 31 17 ZZW 1009,9 13 0,0
21.07.2019 09:00:00 18,1 16,4 24 13 34 18 Z 1009,5 12 0,0
21.07.2019 08:00:00 17,9 16,2 29 16 32 17 ZZW 1009,5 11 0,0
21.07.2019 07:00:00 17,9 16,1 22 12 26 14 ZZW 1009,3 15 0,0
21.07.2019 06:00:00 17,8 16,5 24 13 40 21 ZZW 1009,0 10 0,0
21.07.2019 05:00:00 18,1 16,6 28 15 39 21 ZZW 1008,6 12 0,0
21.07.2019 04:00:00 16,9 14,5 23 12 41 22 ZO 1008,6 34 0,1
21.07.2019 03:00:00 17,3 15,1 33 18 42 23 ZZO 1008,9 6 2,4
21.07.2019 02:00:00 16,7 15,4 34 18 40 22 ZZO 1009,5 2,6 3,2
21.07.2019 01:00:00 18,3 15,9 22 12 36 20 ZZW 1010,2 16 0,0
21.07.2019 00:00:00 19,7 16,3 24 13 29 16 Z 1010,5 30 0,0
20.07.2019 23:00:00 20,7 15,5 23 13 31 17 ZO 1009,9 47 0,0
20.07.2019 22:00:00 20,8 15,1 21 12 30 16 ZO 1010,0 40 0,0
20.07.2019 21:00:00 20,7 15,3 24 13 40 22 ZO 1010,2 39 0,0
20.07.2019 20:00:00 20,9 14,8 26 14 34 19 ZZO 1010,4 44 0,0
20.07.2019 19:00:00 20,6 14,0 26 14 33 18 ZZO 1011,1 36 0,0
20.07.2019 18:00:00 20,5 13,9 23 12 28 15 ZZO 1011,5 37 0,0
20.07.2019 17:00:00 20,1 14,2 22 12 31 17 ZZO 1012,1 36 0,0
20.07.2019 16:00:00 19,6 13,5 26 14 32 17 ZZO 1012,6 32 0,0
20.07.2019 15:00:00 19,4 15,1 24 13 29 16 ZZO 1013,0 36 0,0
20.07.2019 14:00:00 19,8 15,2 23 12 27 15 ZZO 1013,3 30 0,0
20.07.2019 13:00:00 19,1 15,0 21 11 25 14 Z 1013,7 35 0,0
20.07.2019 12:00:00 19,2 13,8 19 10 22 12 Z 1013,6 38 0,0
20.07.2019 11:00:00 19,1 12,8 12 7 15 8 ZZO 1013,7 33 0,0
20.07.2019 10:00:00 18,6 11,7 11 6 15 8 ZZO 1013,9 39 0,0
20.07.2019 09:00:00 17,9 12,4 10 6 14 8 ZO 1013,7 36 0,0
20.07.2019 08:00:00 17,6 13,5 10 5 13 7 ZO 1013,6 39 0,0
20.07.2019 07:00:00 17,2 12,1 4 2 6 4 ZZO 1013,4 45 0,0
20.07.2019 06:00:00 16,9 12,2 3 2 5 3 ZW 1013,5 48 0,0
20.07.2019 05:00:00 16,6 11,7 0 0 8 4 N 1013,5 50 0,0
20.07.2019 04:00:00 16,5 12,3 4 2 8 4 WZW 1013,7 47 0,0
20.07.2019 03:00:00 16,4 12,2 5 3 13 7 W 1013,6 50 0,0
20.07.2019 02:00:00 16,6 12,4 10 5 17 9 WNW 1013,5 50 0,0
20.07.2019 01:00:00 16,6 12,6 11 6 17 9 WNW 1013,4 47 0,0
20.07.2019 00:00:00 16,7 13,0 13 7 18 10 WNW 1013,4 46 0,0
19.07.2019 23:00:00 17,0 13,7 12 7 19 11 WNW 1013,2 47 0,0
19.07.2019 22:00:00 16,9 14,2 14 8 18 10 WNW 1012,8 48 0,0
19.07.2019 21:00:00 17,1 14,7 14 7 22 12 WNW 1012,3 40 0,0
19.07.2019 20:00:00 17,8 15,8 16 9 21 12 NW 1012,0 15 0,0
19.07.2019 19:00:00 18,5 15,7 16 8 21 11 WNW 1011,8 15 0,0
19.07.2019 18:00:00 18,7 16,3 16 9 22 12 WZW 1011,8 14 0,0
19.07.2019 17:00:00 19,0 16,4 14 7 24 13 ZZW 1011,5 28 0,0
19.07.2019 16:00:00 19,3 15,6 21 11 27 14 ZZW 1011,6 25 0,0
19.07.2019 15:00:00 19,6 15,3 24 13 31 17 Z 1011,3 32 0,0
19.07.2019 14:00:00 19,9 14,9 26 14 34 19 Z 1011,3 29 0,0
19.07.2019 13:00:00 19,3 13,9 27 15 32 17 Z 1011,2 39 0,0
19.07.2019 12:00:00 19,1 14,4 14 8 21 11 Z 1011,3 32 0,0
19.07.2019 11:00:00 19,0 13,8 18 10 30 16 ZO 1011,1 43 0,0
19.07.2019 10:00:00 18,6 14,3 26 14 32 18 ZO 1010,9 39 0,0
19.07.2019 09:00:00 18,4 14,1 26 14 34 18 ZZO 1010,9 29 0,0
19.07.2019 08:00:00 18,3 14,4 29 16 34 18 ZZO 1010,9 34 0,0
19.07.2019 07:00:00 18,4 15,3 24 13 33 18 ZZO 1010,7 37 0,0
19.07.2019 06:00:00 18,9 16,7 21 11 27 14 ZZO 1010,8 36 0,0
19.07.2019 05:00:00 18,6 16,4 17 9 24 13 ZZO 1010,9 27 0,0
19.07.2019 04:00:00 18,3 14,8 21 12 25 14 ZZO 1010,9 44 0,0
19.07.2019 03:00:00 18,7 13,5 18 10 24 13 ZZO 1011,0 50 0,0
19.07.2019 02:00:00 19,0 13,2 17 9 22 12 ZZO 1011,0 50 0,0
19.07.2019 01:00:00 19,3 13,9 15 8 21 11 ZZO 1011,2 50 0,0
19.07.2019 00:00:00 19,3 13,2 18 10 26 14 ZZO 1011,2 50 0,0
18.07.2019 23:00:00 19,4 12,9 19 10 22 12 ZO 1011,1 50 0,0
18.07.2019 22:00:00 19,4 14,0 15 8 21 11 ZZO 1011,1 50 0,0
18.07.2019 21:00:00 19,5 13,9 16 9 19 11 ZO 1011,1 50 0,0
18.07.2019 20:00:00 19,7 13,9 16 9 19 10 ZZO 1011,2 48 0,0
18.07.2019 19:00:00 20,0 13,9 14 7 16 9 ZZO 1011,4 35 0,0
18.07.2019 18:00:00 19,6 13,8 11 6 14 8 ZZO 1011,6 36 0,0
18.07.2019 17:00:00 20,1 13,8 11 6 14 8 Z 1011,9 38 0,0
18.07.2019 16:00:00 19,1 15,2 11 6 14 8 ZZW 1012,1 24 0,0
18.07.2019 15:00:00 20,1 15,5 12 7 17 9 ZZW 1012,4 30 0,0
18.07.2019 14:00:00 19,2 14,9 14 8 16 9 Z 1012,4 35 0,0
18.07.2019 13:00:00 19,3 15,8 16 8 23 13 Z 1012,4 31 0,0
18.07.2019 12:00:00 19,3 16,0 18 10 22 12 Z 1012,4 31 0,0
18.07.2019 11:00:00 19,1 13,9 16 9 19 11 Z 1012,3 33 0,0
18.07.2019 10:00:00 18,3 13,6 10 6 13 7 ZZO 1012,3 33 0,0
18.07.2019 09:00:00 17,9 12,8 6 3 12 7 ZO 1012,5 33 0,0
18.07.2019 08:00:00 17,3 14,2 7 4 10 6 ONO 1012,5 24 0,0
18.07.2019 07:00:00 16,6 14,1 4 2 9 5 O 1012,5 26 0,0
18.07.2019 06:00:00 16,6 14,4 3 1 5 3 ONO 1012,5 27 0,0
18.07.2019 05:00:00 15,8 13,8 2 1 4 2 ONO 1012,5 36 0,0
18.07.2019 04:00:00 15,9 13,7 0 0 1 1 N 1012,5 37 0,0
18.07.2019 03:00:00 15,9 13,6 0 0 2 1 N 1012,8 36 0,0
18.07.2019 02:00:00 15,9 13,4 0 0 6 3 N 1013,0 36 0,0
18.07.2019 01:00:00 16,0 13,3 0 0 8 4 N 1012,9 40 0,0
18.07.2019 00:00:00 16,1 13,4 5 3 13 7 WNW 1013,0 40 0,0

tt = temperatuur
td = dauwpunt
ff = windsnelheid
fx = windstoten
dd = windrichting
ppp = luchtdruk
vv = zicht
rr = neerslag

Weerstations in de omgeving